User: anonymous   Login
Location: Unspecified
(0.0000°N, 0.0000°E)
Time: 12:29:30
(UTC+00:00)
Language:

SJ-6C - Orbit

View from above orbital plane
View from above orbital plane
View from above satellite
View from above satellite

Ground track
Ground track

The orbit data is extracted from the following two-line orbital elements,

1 29505U 06046A   18289.19143851  .00000637  00000-0  64424-4 0  9997
2 29505  97.8293 294.6481 0001505 290.5499  69.5554 14.94477104652451
Epoch (UTC): 16 October 2018 04:35:40
Eccentricity: 0.0001505
inclination: 97.8293°
perigee height: 583 km
apogee height: 585 km
right ascension of ascending node: 294.6481°
argument of perigee: 290.5499°
revolutions per day: 14.94477104
mean anomaly at epoch: 69.5554°
orbit number at epoch: 65245

The dashed part of the orbit path shows where the satellite is in the earth's shadow,  

DLR